| time (UTC) | temp C | wind direction | speed KPH | gust KPH | rain 1hr cm | rain 24hr cm | rain mn cm | humidity % | barometer mb |
| 20260905191055 | 26 | 238 | 4.8 | 14.5 | 0.00 | 0.00 | 0.00 | 56 | 1013.3 |
| 20260905190556 | 26 | 150 | 6.4 | 16.1 | 0.00 | 0.00 | 0.00 | 55 | 1013.4 |
| 20260905185555 | 26 | 205 | 3.2 | 9.7 | 0.00 | 0.00 | 0.00 | 53 | 1013.5 |
| 20260905185059 | 26 | 243 | 4.8 | 11.3 | 0.00 | 0.00 | 0.00 | 55 | 1013.6 |
| 20260905184602 | 26 | 202 | 4.8 | 11.3 | 0.00 | 0.00 | 0.00 | 57 | 1013.5 |
| 20260905184059 | 26 | 248 | 4.8 | 9.7 | 0.00 | 0.00 | 0.00 | 56 | 1013.5 |
| 20260905183556 | 27 | 247 | 3.2 | 9.7 | 0.00 | 0.00 | 0.00 | 55 | 1013.6 |
| 20260905183107 | 27 | 275 | 1.6 | 6.4 | 0.00 | 0.00 | 0.00 | 50 | 1013.6 |
| 20260905182631 | 26 | 0 | 1.6 | 6.4 | 0.00 | 0.00 | 0.00 | 51 | 1013.7 |
| 20260905182055 | 26 | 99 | 0.0 | 11.3 | 0.00 | 0.00 | 0.00 | 52 | 1013.7 |
| 20260905181603 | 26 | 55 | 3.2 | 11.3 | 0.00 | 0.00 | 0.00 | 51 | 1013.8 |
| 20260905181053 | 26 | 115 | 1.6 | 11.3 | 0.00 | 0.00 | 0.00 | 51 | 1013.8 |
| 20260905180555 | 26 | 219 | 3.2 | 11.3 | 0.00 | 0.00 | 0.00 | 51 | 1013.8 |
| 20260905180114 | 26 | 78 | 4.8 | 9.7 | 0.00 | 0.00 | 0.00 | 52 | 1013.8 |
| 20260905175556 | 26 | 315 | 0.0 | 4.8 | 0.00 | 0.00 | 0.00 | 55 | 1013.8 |
| 20260905175059 | 25 | 71 | 0.0 | 8.0 | 0.00 | 0.00 | 0.00 | 53 | 1013.7 |
| 20260905174605 | 25 | 0 | 0.0 | 8.0 | 0.00 | 0.00 | 0.00 | 57 | 1013.7 |
| 20260905174055 | 25 | 194 | 3.2 | 11.3 | 0.00 | 0.00 | 0.00 | 58 | 1013.7 |
| 20260905173556 | 25 | 0 | 4.8 | 11.3 | 0.00 | 0.00 | 0.00 | 58 | 1013.6 |
| 20260905173126 | 25 | 229 | 3.2 | 6.4 | 0.00 | 0.00 | 0.00 | 59 | 1013.7 |
| 20260905172555 | 25 | 179 | 0.0 | 9.7 | 0.00 | 0.00 | 0.00 | 61 | 1013.6 |
| 20260905172055 | 25 | 0 | 1.6 | 9.7 | 0.00 | 0.00 | 0.00 | 61 | 1013.7 |
| 20260905171603 | 25 | 0 | 3.2 | 9.7 | 0.00 | 0.00 | 0.00 | 61 | 1013.7 |
| 20260905171056 | 24 | 119 | 3.2 | 9.7 | 0.00 | 0.00 | 0.00 | 61 | 1013.7 |
| 20260905170556 | 24 | 0 | 1.6 | 11.3 | 0.00 | 0.00 | 0.00 | 64 | 1013.6 |
| 20260905170105 | 24 | 200 | 3.2 | 11.3 | 0.00 | 0.00 | 0.00 | 63 | 1013.7 |
| 20260905165555 | 24 | 0 | 1.6 | 8.0 | 0.00 | 0.00 | 0.00 | 64 | 1013.6 |
| 20260905165059 | 24 | 0 | 3.2 | 9.7 | 0.00 | 0.00 | 0.00 | 63 | 1013.5 |
| 20260905164615 | 24 | 71 | 3.2 | 9.7 | 0.00 | 0.00 | 0.00 | 61 | 1013.5 |
| 20260905164057 | 24 | 71 | 0.0 | 6.4 | 0.00 | 0.00 | 0.00 | 65 | 1013.4 |
| 20260905163556 | 24 | 120 | 1.6 | 6.4 | 0.00 | 0.00 | 0.00 | 65 | 1013.4 |
| 20260905163101 | 24 | 0 | 1.6 | 6.4 | 0.00 | 0.00 | 0.00 | 65 | 1013.3 |
| 20260905162556 | 24 | 0 | 0.0 | 4.8 | 0.00 | 0.00 | 0.00 | 68 | 1013.3 |
| 20260905162056 | 23 | 0 | 0.0 | 4.8 | 0.00 | 0.00 | 0.00 | 68 | 1013.2 |
| 20260905161603 | 23 | 0 | 0.0 | 4.8 | 0.00 | 0.00 | 0.00 | 70 | 1013.2 |
| 20260905161055 | 23 | 71 | 0.0 | 4.8 | 0.00 | 0.00 | 0.00 | 71 | 1013.1 |
| 20260905160555 | 23 | 0 | 0.0 | 4.8 | 0.00 | 0.00 | 0.00 | 71 | 1013.1 |
| 20260905160101 | 23 | 99 | 0.0 | 4.8 | 0.00 | 0.00 | 0.00 | 72 | 1013.1 |
| 20260905155555 | 23 | 85 | 0.0 | 3.2 | 0.00 | 0.00 | 0.00 | 74 | 1013.1 |
| 20260905155057 | 22 | 0 | 0.0 | 3.2 | 0.00 | 0.00 | 0.00 | 74 | 1013.1 |
| 20260905154603 | 22 | 0 | 0.0 | 3.2 | 0.00 | 0.00 | 0.00 | 75 | 1013.2 |
| 20260905154056 | 22 | 0 | 0.0 | 1.6 | 0.00 | 0.00 | 0.00 | 76 | 1013.1 |
| 20260905153559 | 22 | 49 | 0.0 | 3.2 | 0.00 | 0.00 | 0.00 | 76 | 1013.0 |
| 20260905153102 | 21 | 0 | 0.0 | 3.2 | 0.00 | 0.00 | 0.00 | 80 | 1013.0 |
| 20260905152555 | 21 | 0 | 0.0 | 1.6 | 0.00 | 0.00 | 0.00 | 82 | 1012.9 |
| 20260905152055 | 20 | 0 | 0.0 | 1.6 | 0.00 | 0.00 | 0.00 | 84 | 1012.9 |
| 20260905151601 | 20 | 0 | 0.0 | 3.2 | 0.00 | 0.00 | 0.00 | 85 | 1013.0 |
| 20260905151055 | 20 | 0 | 0.0 | 3.2 | 0.00 | 0.00 | 0.00 | 86 | 1012.9 |
| 20260905150559 | 20 | 49 | 0.0 | 3.2 | 0.00 | 0.00 | 0.00 | 87 | 1013.0 |
| 20260905150109 | 19 | 0 | 0.0 | 3.2 | 0.00 | 0.00 | 0.00 | 89 | 1012.9 |
| 20260905145555 | 18 | 0 | 0.0 | 3.2 | 0.00 | 0.00 | 0.00 | 90 | 1012.9 |
| 20260905145055 | 18 | 29 | 0.0 | 0.0 | 0.00 | 0.00 | 0.00 | 90 | 1012.9 |
| 20260905144602 | 18 | 0 | 0.0 | 0.0 | 0.00 | 0.00 | 0.00 | 91 | 1012.9 |
| 20260905144055 | 18 | 0 | 0.0 | 4.8 | 0.00 | 0.00 | 0.00 | 92 | 1012.9 |
| 20260905143555 | 17 | 0 | 1.6 | 4.8 | 0.00 | 0.00 | 0.00 | 92 | 1012.8 |
| 20260905143105 | 17 | 350 | 0.0 | 0.0 | 0.00 | 0.00 | 0.00 | 92 | 1012.7 |
| 20260905142555 | 17 | 0 | 0.0 | 0.0 | 0.00 | 0.00 | 0.00 | 92 | 1012.6 |
| 20260905142056 | 17 | 0 | 0.0 | 0.0 | 0.00 | 0.00 | 0.00 | 93 | 1012.7 |
| 20260905141600 | 17 | 0 | 0.0 | 0.0 | 0.00 | 0.00 | 0.00 | 93 | 1012.8 |
| 20260905141055 | 17 | 0 | 0.0 | 1.6 | 0.00 | 0.00 | 0.00 | 93 | 1012.7 |
| 20260905140556 | 17 | 0 | 0.0 | 4.8 | 0.00 | 0.00 | 0.00 | 93 | 1012.6 |
| 20260905140108 | 17 | 341 | 1.6 | 4.8 | 0.00 | 0.00 | 0.00 | 92 | 1012.6 |
| 20260905135556 | 17 | 0 | 0.0 | 4.8 | 0.00 | 0.00 | 0.00 | 92 | 1012.5 |
| 20260905135056 | 17 | 0 | 0.0 | 1.6 | 0.00 | 0.00 | 0.00 | 92 | 1012.6 |
| 20260905134606 | 17 | 352 | 0.0 | 1.6 | 0.00 | 0.00 | 0.00 | 92 | 1012.4 |
| 20260905134055 | 17 | 0 | 0.0 | 3.2 | 0.00 | 0.00 | 0.00 | 92 | 1012.4 |
| 20260905133556 | 17 | 0 | 0.0 | 3.2 | 0.00 | 0.00 | 0.00 | 92 | 1012.3 |
| 20260905133102 | 17 | 0 | 0.0 | 0.0 | 0.00 | 0.00 | 0.00 | 92 | 1012.2 |
| 20260905132555 | 17 | 0 | 0.0 | 1.6 | 0.00 | 0.00 | 0.00 | 92 | 1012.2 |
| 20260905132058 | 17 | 0 | 0.0 | 3.2 | 0.00 | 0.00 | 0.00 | 92 | 1012.1 |
| 20260905131600 | 17 | 0 | 1.6 | 3.2 | 0.00 | 0.00 | 0.00 | 92 | 1012.1 |
| 20260905131056 | 17 | 28 | 0.0 | 3.2 | 0.00 | 0.00 | 0.00 | 92 | 1012.1 |
| 20260905130556 | 17 | 0 | 0.0 | 0.0 | 0.00 | 0.00 | 0.00 | 92 | 1012.0 |
| 20260905130059 | 17 | 0 | 0.0 | 4.8 | 0.00 | 0.00 | 0.00 | 92 | 1012.1 |
| 20260905125555 | 17 | 0 | 0.0 | 6.4 | 0.00 | 0.00 | 0.00 | 92 | 1012.0 |
| 20260905125056 | 17 | 0 | 1.6 | 6.4 | 0.00 | 0.00 | 0.00 | 92 | 1012.1 |
| 20260905124608 | 17 | 351 | 0.0 | 4.8 | 0.00 | 0.00 | 0.00 | 92 | 1012.1 |
| 20260905124055 | 17 | 0 | 0.0 | 4.8 | 0.00 | 0.00 | 0.00 | 92 | 1012.1 |
| 20260905123555 | 17 | 0 | 0.0 | 4.8 | 0.00 | 0.00 | 0.00 | 92 | 1012.1 |
| 20260905123106 | 17 | 352 | 1.6 | 4.8 | 0.00 | 0.00 | 0.00 | 92 | 1011.9 |
| 20260905122556 | 17 | 352 | 0.0 | 4.8 | 0.00 | 0.00 | 0.00 | 92 | 1012.0 |
| 20260905122100 | 17 | 0 | 0.0 | 0.0 | 0.00 | 0.00 | 0.00 | 92 | 1012.1 |
| 20260905121601 | 17 | 0 | 0.0 | 1.6 | 0.00 | 0.00 | 0.00 | 92 | 1012.1 |
| 20260905121100 | 17 | 0 | 0.0 | 1.6 | 0.00 | 0.00 | 0.00 | 92 | 1012.1 |
| 20260905120555 | 17 | 0 | 0.0 | 1.6 | 0.00 | 0.00 | 0.00 | 92 | 1012.1 |
| 20260905120107 | 17 | 0 | 0.0 | 3.2 | 0.00 | 0.00 | 0.00 | 92 | 1012.1 |
| 20260905115556 | 17 | 0 | 0.0 | 3.2 | 0.00 | 0.00 | 0.00 | 92 | 1012.1 |
| 20260905115055 | 17 | 19 | 0.0 | 4.8 | 0.00 | 0.00 | 0.00 | 92 | 1012.0 |
| 20260905114611 | 17 | 0 | 1.6 | 4.8 | 0.00 | 0.00 | 0.00 | 92 | 1012.1 |
| 20260905114056 | 17 | 352 | 1.6 | 4.8 | 0.00 | 0.00 | 0.00 | 92 | 1012.1 |
| 20260905113555 | 17 | 342 | 1.6 | 4.8 | 0.00 | 0.00 | 0.00 | 92 | 1012.0 |
| 20260905113100 | 17 | 0 | 0.0 | 0.0 | 0.00 | 0.00 | 0.00 | 91 | 1012.0 |
| 20260905112556 | 17 | 0 | 0.0 | 0.0 | 0.00 | 0.00 | 0.00 | 92 | 1012.1 |
| 20260905112055 | 17 | 0 | 0.0 | 0.0 | 0.00 | 0.00 | 0.00 | 92 | 1012.1 |
| 20260905111652 | 17 | 0 | 0.0 | 4.8 | 0.00 | 0.00 | 0.00 | 92 | 1012.1 |
| 20260905111057 | 17 | 0 | 0.0 | 4.8 | 0.00 | 0.00 | 0.00 | 91 | 1012.1 |
| 20260905110556 | 17 | 0 | 0.0 | 0.0 | 0.00 | 0.00 | 0.00 | 91 | 1012.1 |
| 20260905110104 | 17 | 0 | 0.0 | 0.0 | 0.00 | 0.00 | 0.00 | 91 | 1012.0 |
| 20260905105555 | 17 | 0 | 0.0 | 0.0 | 0.00 | 0.00 | 0.00 | 91 | 1012.1 |
| 20260905105054 | 17 | 0 | 0.0 | 0.0 | 0.00 | 0.00 | 0.00 | 91 | 1012.2 |
| 20260905104600 | 17 | 0 | 0.0 | 0.0 | 0.00 | 0.00 | 0.00 | 91 | 1012.2 |
| 20260905104054 | 17 | 0 | 0.0 | 0.0 | 0.00 | 0.00 | 0.00 | 91 | 1012.2 |
| 20260905103553 | 17 | 0 | 0.0 | 3.2 | 0.00 | 0.00 | 0.00 | 91 | 1012.3 |
| 20260905103104 | 17 | 0 | 0.0 | 3.2 | 0.00 | 0.00 | 0.00 | 91 | 1012.2 |
| 20260905102556 | 17 | 0 | 0.0 | 3.2 | 0.00 | 0.00 | 0.00 | 91 | 1012.2 |
| 20260905102053 | 17 | 0 | 0.0 | 0.0 | 0.00 | 0.00 | 0.00 | 91 | 1012.3 |
| 20260905101559 | 17 | 0 | 0.0 | 3.2 | 0.00 | 0.00 | 0.00 | 91 | 1012.3 |
| 20260905101054 | 17 | 0 | 0.0 | 3.2 | 0.00 | 0.00 | 0.00 | 91 | 1012.3 |
| 20260905100553 | 17 | 23 | 0.0 | 1.6 | 0.00 | 0.00 | 0.00 | 91 | 1012.3 |
| 20260905095554 | 17 | 0 | 0.0 | 1.6 | 0.00 | 0.00 | 0.00 | 90 | 1012.2 |
| 20260905095053 | 17 | 0 | 0.0 | 3.2 | 0.00 | 0.00 | 0.00 | 90 | 1012.2 |
| 20260905094557 | 17 | 0 | 0.0 | 3.2 | 0.00 | 0.00 | 0.00 | 91 | 1012.3 |
| 20260905094054 | 17 | 0 | 0.0 | 3.2 | 0.00 | 0.00 | 0.00 | 91 | 1012.3 |
| 20260905093554 | 17 | 0 | 0.0 | 3.2 | 0.00 | 0.00 | 0.00 | 90 | 1012.4 |
| 20260905093122 | 17 | 23 | 0.0 | 3.2 | 0.00 | 0.00 | 0.00 | 90 | 1012.3 |
| 20260905092552 | 17 | 24 | 0.0 | 3.2 | 0.00 | 0.00 | 0.00 | 90 | 1012.4 |
| 20260905092052 | 17 | 0 | 0.0 | 0.0 | 0.00 | 0.00 | 0.00 | 90 | 1012.4 |
| 20260905091600 | 17 | 0 | 0.0 | 0.0 | 0.00 | 0.00 | 0.00 | 90 | 1012.4 |
| 20260905091056 | 17 | 0 | 0.0 | 0.0 | 0.00 | 0.00 | 0.00 | 89 | 1012.5 |
| 20260905090552 | 17 | 0 | 0.0 | 0.0 | 0.00 | 0.00 | 0.00 | 89 | 1012.4 |
| 20260905085554 | 17 | 0 | 0.0 | 0.0 | 0.00 | 0.00 | 0.00 | 89 | 1012.5 |
| 20260905085053 | 17 | 0 | 0.0 | 0.0 | 0.00 | 0.00 | 0.00 | 89 | 1012.5 |
| 20260905084605 | 17 | 0 | 0.0 | 0.0 | 0.00 | 0.00 | 0.00 | 89 | 1012.5 |
| 20260905084054 | 17 | 0 | 0.0 | 0.0 | 0.00 | 0.00 | 0.00 | 89 | 1012.6 |
| 20260905083553 | 17 | 0 | 0.0 | 1.6 | 0.00 | 0.00 | 0.00 | 89 | 1012.7 |
| 20260905083101 | 17 | 0 | 0.0 | 1.6 | 0.00 | 0.00 | 0.00 | 89 | 1012.7 |
| 20260905082553 | 17 | 0 | 0.0 | 1.6 | 0.00 | 0.00 | 0.00 | 89 | 1012.6 |
| 20260905082053 | 17 | 0 | 0.0 | 1.6 | 0.00 | 0.00 | 0.00 | 88 | 1012.7 |
| 20260905081556 | 18 | 0 | 0.0 | 0.0 | 0.00 | 0.00 | 0.00 | 88 | 1012.7 |
| 20260905081053 | 18 | 0 | 0.0 | 0.0 | 0.00 | 0.00 | 0.00 | 88 | 1012.7 |
| 20260905080555 | 18 | 0 | 0.0 | 0.0 | 0.00 | 0.00 | 0.00 | 88 | 1012.7 |
| 20260905080054 | 18 | 0 | 0.0 | 0.0 | 0.00 | 0.00 | 0.00 | 88 | 1012.7 |
| 20260905075554 | 18 | 0 | 0.0 | 0.0 | 0.00 | 0.00 | 0.00 | 88 | 1012.7 |
| 20260905075053 | 18 | 0 | 0.0 | 0.0 | 0.00 | 0.00 | 0.00 | 89 | 1012.6 |
| 20260905074609 | 18 | 0 | 0.0 | 3.2 | 0.00 | 0.00 | 0.00 | 89 | 1012.6 |
| 20260905074052 | 18 | 0 | 0.0 | 3.2 | 0.00 | 0.00 | 0.00 | 89 | 1012.7 |
| 20260905073556 | 18 | 0 | 0.0 | 3.2 | 0.00 | 0.00 | 0.00 | 89 | 1012.5 |
| 20260905073103 | 18 | 0 | 1.6 | 3.2 | 0.00 | 0.00 | 0.00 | 89 | 1012.7 |
| 20260905072555 | 18 | 30 | 0.0 | 3.2 | 0.00 | 0.00 | 0.00 | 89 | 1012.7 |
| 20260905072055 | 18 | 0 | 0.0 | 0.0 | 0.00 | 0.00 | 0.00 | 88 | 1012.5 |
| 20260905071558 | 18 | 0 | 0.0 | 0.0 | 0.00 | 0.00 | 0.00 | 88 | 1012.5 |
| 20260905071056 | 18 | 0 | 0.0 | 0.0 | 0.00 | 0.00 | 0.00 | 88 | 1012.5 |
| 20260905070558 | 18 | 0 | 0.0 | 3.2 | 0.00 | 0.00 | 0.00 | 87 | 1012.5 |
| 20260905065555 | 18 | 0 | 0.0 | 3.2 | 0.00 | 0.00 | 0.00 | 88 | 1012.4 |
| 20260905065055 | 18 | 44 | 0.0 | 3.2 | 0.00 | 0.00 | 0.00 | 88 | 1012.4 |
| 20260905064626 | 18 | 0 | 0.0 | 3.2 | 0.00 | 0.00 | 0.00 | 88 | 1012.3 |
| 20260905064054 | 18 | 57 | 0.0 | 3.2 | 0.00 | 0.00 | 0.00 | 88 | 1012.3 |
| 20260905063556 | 18 | 0 | 0.0 | 0.0 | 0.00 | 0.00 | 0.00 | 88 | 1012.3 |
| 20260905063101 | 18 | 0 | 0.0 | 0.0 | 0.00 | 0.00 | 0.00 | 88 | 1012.3 |
| 20260905062556 | 18 | 0 | 0.0 | 0.0 | 0.00 | 0.00 | 0.00 | 88 | 1012.2 |
| 20260905062056 | 18 | 0 | 0.0 | 3.2 | 0.00 | 0.00 | 0.00 | 88 | 1012.2 |
| 20260905061601 | 18 | 0 | 0.0 | 3.2 | 0.00 | 0.00 | 0.00 | 88 | 1012.3 |
| 20260905061056 | 18 | 0 | 0.0 | 3.2 | 0.00 | 0.00 | 0.00 | 88 | 1012.3 |
| 20260905060556 | 18 | 0 | 0.0 | 3.2 | 0.00 | 0.00 | 0.00 | 87 | 1012.3 |
| 20260905060055 | 18 | 0 | 0.0 | 4.8 | 0.00 | 0.00 | 0.00 | 87 | 1012.3 |
| 20260905055558 | 18 | 0 | 0.0 | 4.8 | 0.00 | 0.00 | 0.00 | 87 | 1012.2 |
| 20260905055056 | 18 | 0 | 0.0 | 0.0 | 0.00 | 0.00 | 0.00 | 87 | 1012.3 |
| 20260905054604 | 18 | 0 | 0.0 | 0.0 | 0.00 | 0.00 | 0.00 | 87 | 1012.3 |
| 20260905054056 | 18 | 0 | 0.0 | 1.6 | 0.00 | 0.00 | 0.00 | 87 | 1012.4 |
| 20260905053556 | 18 | 0 | 0.0 | 1.6 | 0.00 | 0.00 | 0.00 | 87 | 1012.3 |
| 20260905053100 | 18 | 0 | 0.0 | 0.0 | 0.00 | 0.00 | 0.00 | 86 | 1012.2 |
| 20260905052555 | 18 | 0 | 0.0 | 0.0 | 0.00 | 0.00 | 0.00 | 87 | 1012.3 |
| 20260905052056 | 18 | 0 | 0.0 | 0.0 | 0.00 | 0.00 | 0.00 | 87 | 1012.4 |
| 20260905051558 | 18 | 0 | 0.0 | 0.0 | 0.00 | 0.00 | 0.00 | 87 | 1012.3 |
| 20260905051055 | 18 | 0 | 0.0 | 0.0 | 0.00 | 0.00 | 0.00 | 87 | 1012.3 |
| 20260905050556 | 18 | 0 | 0.0 | 3.2 | 0.00 | 0.00 | 0.00 | 87 | 1012.3 |
| 20260905050100 | 18 | 0 | 0.0 | 3.2 | 0.00 | 0.00 | 0.00 | 87 | 1012.3 |
| 20260905045555 | 18 | 0 | 0.0 | 3.2 | 0.00 | 0.00 | 0.00 | 86 | 1012.2 |
| 20260905045055 | 18 | 0 | 0.0 | 1.6 | 0.00 | 0.00 | 0.00 | 87 | 1012.3 |
| 20260905044604 | 18 | 0 | 0.0 | 4.8 | 0.00 | 0.00 | 0.00 | 87 | 1012.2 |
| 20260905044057 | 18 | 0 | 0.0 | 4.8 | 0.00 | 0.00 | 0.00 | 86 | 1012.0 |
| 20260905043555 | 19 | 0 | 0.0 | 0.0 | 0.00 | 0.00 | 0.00 | 86 | 1011.8 |
| 20260905043106 | 19 | 0 | 0.0 | 0.0 | 0.00 | 0.00 | 0.00 | 86 | 1011.7 |
| 20260905042555 | 19 | 0 | 0.0 | 0.0 | 0.00 | 0.00 | 0.00 | 86 | 1011.7 |
| 20260905042056 | 19 | 0 | 0.0 | 0.0 | 0.00 | 0.00 | 0.00 | 86 | 1011.8 |
| 20260905041601 | 19 | 0 | 0.0 | 4.8 | 0.00 | 0.00 | 0.00 | 85 | 1011.7 |
| 20260905041055 | 19 | 0 | 0.0 | 4.8 | 0.00 | 0.00 | 0.00 | 85 | 1011.6 |
| 20260905040555 | 19 | 343 | 0.0 | 4.8 | 0.00 | 0.00 | 0.00 | 85 | 1011.6 |
| 20260905035555 | 20 | 0 | 0.0 | 1.6 | 0.00 | 0.00 | 0.00 | 85 | 1011.9 |
| 20260905035056 | 20 | 0 | 0.0 | 1.6 | 0.00 | 0.00 | 0.00 | 85 | 1011.9 |
| 20260905034609 | 20 | 0 | 0.0 | 3.2 | 0.00 | 0.00 | 0.00 | 85 | 1011.9 |
| 20260905034056 | 20 | 346 | 0.0 | 3.2 | 0.00 | 0.00 | 0.00 | 85 | 1011.7 |
| 20260905033555 | 20 | 348 | 0.0 | 3.2 | 0.00 | 0.00 | 0.00 | 85 | 1011.6 |
| 20260905033056 | 20 | 0 | 0.0 | 0.0 | 0.00 | 0.00 | 0.00 | 84 | 1011.5 |
| 20260905032556 | 20 | 0 | 0.0 | 1.6 | 0.00 | 0.00 | 0.00 | 84 | 1011.5 |
| 20260905032055 | 20 | 0 | 0.0 | 4.8 | 0.00 | 0.00 | 0.00 | 84 | 1011.4 |
| 20260905031556 | 20 | 0 | 0.0 | 6.4 | 0.00 | 0.00 | 0.00 | 85 | 1011.3 |
| 20260905031056 | 20 | 236 | 0.0 | 6.4 | 0.00 | 0.00 | 0.00 | 84 | 1011.3 |
| 20260905030555 | 20 | 216 | 1.6 | 6.4 | 0.00 | 0.00 | 0.00 | 84 | 1011.2 |
| 20260905030117 | 20 | 0 | 0.0 | 3.2 | 0.00 | 0.00 | 0.00 | 84 | 1011.2 |
| 20260905025555 | 20 | 0 | 0.0 | 6.4 | 0.00 | 0.00 | 0.00 | 84 | 1011.1 |
| 20260905025056 | 20 | 0 | 1.6 | 9.7 | 0.00 | 0.00 | 0.00 | 84 | 1011.1 |
| 20260905024606 | 20 | 265 | 0.0 | 11.3 | 0.00 | 0.00 | 0.00 | 84 | 1011.1 |
| 20260905024056 | 20 | 276 | 4.8 | 16.1 | 0.00 | 0.00 | 0.00 | 84 | 1011.1 |
| 20260905023600 | 20 | 242 | 4.8 | 16.1 | 0.00 | 0.00 | 0.00 | 84 | 1011.1 |
| 20260905023101 | 20 | 269 | 11.3 | 16.1 | 0.00 | 0.00 | 0.00 | 83 | 1011.1 |
| 20260905022555 | 20 | 262 | 9.7 | 14.5 | 0.00 | 0.00 | 0.00 | 83 | 1011.2 |
| 20260905022055 | 21 | 294 | 3.2 | 12.9 | 0.00 | 0.00 | 0.00 | 82 | 1011.2 |
| 20260905021556 | 21 | 286 | 6.4 | 14.5 | 0.00 | 0.00 | 0.00 | 82 | 1011.2 |
| 20260905021055 | 21 | 158 | 1.6 | 16.1 | 0.00 | 0.00 | 0.00 | 81 | 1011.1 |
| 20260905020555 | 21 | 175 | 6.4 | 17.7 | 0.00 | 0.00 | 0.00 | 81 | 1011.2 |
| 20260905020107 | 21 | 276 | 9.7 | 17.7 | 0.00 | 0.00 | 0.00 | 80 | 1011.2 |
| 20260905015555 | 21 | 262 | 8.0 | 17.7 | 0.00 | 0.00 | 0.00 | 81 | 1011.2 |
| 20260905015056 | 21 | 264 | 6.4 | 16.1 | 0.00 | 0.00 | 0.00 | 81 | 1011.3 |
| 20260905014604 | 21 | 0 | 8.0 | 16.1 | 0.00 | 0.00 | 0.00 | 81 | 1011.4 |
| 20260905014056 | 21 | 325 | 4.8 | 16.1 | 0.00 | 0.00 | 0.00 | 80 | 1011.3 |
| 20260905013555 | 21 | 256 | 11.3 | 16.1 | 0.00 | 0.00 | 0.00 | 78 | 1011.4 |
| 20260905013059 | 21 | 244 | 6.4 | 16.1 | 0.00 | 0.00 | 0.00 | 78 | 1011.4 |
| 20260905012558 | 22 | 267 | 8.0 | 16.1 | 0.00 | 0.00 | 0.00 | 78 | 1011.3 |
| 20260905012058 | 22 | 292 | 9.7 | 16.1 | 0.00 | 0.00 | 0.00 | 76 | 1011.4 |
| 20260905011558 | 22 | 248 | 4.8 | 17.7 | 0.00 | 0.00 | 0.00 | 78 | 1011.5 |
| 20260905011055 | 22 | 275 | 6.4 | 17.7 | 0.00 | 0.00 | 0.00 | 78 | 1011.5 |
| 20260905010559 | 22 | 318 | 8.0 | 17.7 | 0.00 | 0.00 | 0.00 | 76 | 1011.6 |
| 20260905005556 | 22 | 203 | 6.4 | 17.7 | 0.00 | 0.00 | 0.00 | 75 | 1011.7 |
| 20260905005056 | 22 | 269 | 8.0 | 17.7 | 0.00 | 0.00 | 0.00 | 73 | 1011.7 |
| 20260905004609 | 22 | 167 | 8.0 | 17.7 | 0.00 | 0.00 | 0.00 | 73 | 1011.7 |
| 20260905004056 | 22 | 198 | 6.4 | 17.7 | 0.00 | 0.00 | 0.00 | 74 | 1011.6 |
| 20260905003556 | 22 | 175 | 4.8 | 14.5 | 0.00 | 0.00 | 0.00 | 73 | 1011.6 |
| 20260905003102 | 23 | 282 | 8.0 | 19.3 | 0.00 | 0.00 | 0.00 | 73 | 1011.5 |
| 20260905002555 | 23 | 285 | 3.2 | 19.3 | 0.00 | 0.00 | 0.00 | 74 | 1011.5 |
| 20260905002056 | 23 | 271 | 6.4 | 16.1 | 0.00 | 0.00 | 0.00 | 73 | 1011.4 |
| 20260905001608 | 23 | 264 | 8.0 | 17.7 | 0.00 | 0.00 | 0.00 | 74 | 1011.4 |
| 20260905001055 | 23 | 131 | 8.0 | 17.7 | 0.00 | 0.00 | 0.00 | 72 | 1011.4 |
| 20260905000556 | 23 | 214 | 6.4 | 17.7 | 0.00 | 0.00 | 0.00 | 73 | 1011.5 |
| 20260905000108 | 23 | 211 | 4.8 | 19.3 | 0.00 | 0.00 | 0.00 | 72 | 1011.4 |
| 20260904235555 | 23 | 171 | 6.4 | 19.3 | 0.00 | 0.00 | 0.00 | 72 | 1011.4 |
| 20260904235057 | 23 | 275 | 6.4 | 19.3 | 0.00 | 0.00 | 0.00 | 72 | 1011.4 |
| 20260904234608 | 23 | 213 | 6.4 | 16.1 | 0.00 | 0.00 | 0.00 | 71 | 1011.5 |
| 20260904234056 | 23 | 194 | 6.4 | 16.1 | 0.00 | 0.00 | 0.00 | 72 | 1011.5 |
| 20260904233556 | 23 | 245 | 4.8 | 19.3 | 0.00 | 0.00 | 0.00 | 71 | 1011.5 |
| 20260904233059 | 23 | 292 | 8.0 | 19.3 | 0.00 | 0.00 | 0.00 | 71 | 1011.6 |
| 20260904232556 | 23 | 135 | 4.8 | 14.5 | 0.00 | 0.00 | 0.00 | 71 | 1011.5 |
| 20260904232056 | 23 | 202 | 8.0 | 19.3 | 0.00 | 0.00 | 0.00 | 71 | 1011.4 |
| 20260904231602 | 23 | 225 | 6.4 | 19.3 | 0.00 | 0.00 | 0.00 | 72 | 1011.5 |
| 20260904231055 | 23 | 303 | 11.3 | 19.3 | 0.00 | 0.00 | 0.00 | 71 | 1011.5 |
| 20260904230559 | 23 | 267 | 8.0 | 17.7 | 0.00 | 0.00 | 0.00 | 70 | 1011.5 |
| 20260904230057 | 23 | 202 | 8.0 | 20.9 | 0.00 | 0.00 | 0.00 | 71 | 1011.6 |
| 20260904225555 | 23 | 166 | 6.4 | 20.9 | 0.00 | 0.00 | 0.00 | 69 | 1011.6 |
| 20260904225055 | 23 | 204 | 8.0 | 19.3 | 0.00 | 0.00 | 0.00 | 70 | 1011.7 |
| 20260904224603 | 23 | 217 | 8.0 | 19.3 | 0.00 | 0.00 | 0.00 | 70 | 1011.8 |
| 20260904224055 | 23 | 289 | 6.4 | 20.9 | 0.00 | 0.00 | 0.00 | 70 | 1011.7 |
| 20260904223556 | 23 | 212 | 6.4 | 20.9 | 0.00 | 0.00 | 0.00 | 70 | 1011.7 |
| 20260904223103 | 23 | 264 | 11.3 | 20.9 | 0.00 | 0.00 | 0.00 | 71 | 1011.9 |
| 20260904222555 | 23 | 273 | 9.7 | 19.3 | 0.00 | 0.00 | 0.00 | 71 | 1011.8 |
| 20260904222055 | 23 | 188 | 6.4 | 19.3 | 0.00 | 0.00 | 0.00 | 72 | 1011.8 |
| 20260904221603 | 23 | 276 | 6.4 | 20.9 | 0.00 | 0.00 | 0.00 | 71 | 1011.8 |
| 20260904221057 | 23 | 255 | 8.0 | 20.9 | 0.00 | 0.00 | 0.00 | 71 | 1011.8 |
| 20260904220556 | 23 | 180 | 8.0 | 20.9 | 0.00 | 0.00 | 0.00 | 69 | 1011.9 |
| 20260904220112 | 23 | 197 | 9.7 | 20.9 | 0.00 | 0.00 | 0.00 | 70 | 1011.9 |
| 20260904215556 | 23 | 223 | 11.3 | 22.5 | 0.00 | 0.00 | 0.00 | 70 | 1011.9 |
| 20260904215059 | 23 | 202 | 6.4 | 22.5 | 0.00 | 0.00 | 0.00 | 72 | 1011.9 |
| 20260904214602 | 23 | 260 | 9.7 | 22.5 | 0.00 | 0.00 | 0.00 | 70 | 1011.9 |
| 20260904214056 | 23 | 284 | 6.4 | 19.3 | 0.00 | 0.00 | 0.00 | 72 | 1012.0 |
| 20260904213557 | 23 | 229 | 11.3 | 22.5 | 0.00 | 0.00 | 0.00 | 70 | 1012.0 |
| 20260904213105 | 23 | 252 | 6.4 | 22.5 | 0.00 | 0.00 | 0.00 | 70 | 1012.1 |
| 20260904212556 | 23 | 195 | 6.4 | 22.5 | 0.00 | 0.00 | 0.00 | 70 | 1012.0 |
| 20260904212055 | 24 | 200 | 9.7 | 19.3 | 0.00 | 0.00 | 0.00 | 69 | 1012.1 |
| 20260904211609 | 24 | 142 | 6.4 | 17.7 | 0.00 | 0.00 | 0.00 | 69 | 1012.1 |
| 20260904211055 | 24 | 198 | 6.4 | 17.7 | 0.00 | 0.00 | 0.00 | 69 | 1012.2 |
| 20260904210555 | 23 | 257 | 8.0 | 17.7 | 0.00 | 0.00 | 0.00 | 68 | 1012.0 |
| 20260904210114 | 23 | 192 | 6.4 | 16.1 | 0.00 | 0.00 | 0.00 | 70 | 1012.1 |
| 20260904205556 | 23 | 186 | 6.4 | 20.9 | 0.00 | 0.00 | 0.00 | 69 | 1012.1 |
| 20260904205056 | 23 | 188 | 6.4 | 20.9 | 0.00 | 0.00 | 0.00 | 68 | 1012.2 |
| 20260904204608 | 23 | 292 | 6.4 | 16.1 | 0.00 | 0.00 | 0.00 | 69 | 1012.1 |
| 20260904204056 | 23 | 205 | 6.4 | 19.3 | 0.00 | 0.00 | 0.00 | 68 | 1012.0 |
| 20260904203557 | 23 | 153 | 9.7 | 19.3 | 0.00 | 0.00 | 0.00 | 68 | 1012.1 |
| 20260904203102 | 23 | 202 | 6.4 | 19.3 | 0.00 | 0.00 | 0.00 | 68 | 1011.9 |
| 20260904202556 | 23 | 205 | 9.7 | 17.7 | 0.00 | 0.00 | 0.00 | 67 | 1012.1 |
| 20260904202055 | 23 | 208 | 8.0 | 17.7 | 0.00 | 0.00 | 0.00 | 67 | 1012.3 |
| 20260904201622 | 24 | 175 | 3.2 | 22.5 | 0.00 | 0.00 | 0.00 | 67 | 1012.4 |
| 20260904201055 | 23 | 189 | 6.4 | 22.5 | 0.00 | 0.00 | 0.00 | 67 | 1012.4 |
| 20260904200557 | 23 | 181 | 8.0 | 14.5 | 0.00 | 0.00 | 0.00 | 66 | 1012.3 |
| 20260904200129 | 23 | 171 | 4.8 | 20.9 | 0.00 | 0.00 | 0.00 | 66 | 1012.4 |
| 20260904195555 | 23 | 173 | 6.4 | 20.9 | 0.00 | 0.00 | 0.00 | 66 | 1012.4 |
| 20260904195059 | 23 | 153 | 4.8 | 14.5 | 0.00 | 0.00 | 0.00 | 66 | 1012.4 |
| 20260904194636 | 23 | 176 | 6.4 | 14.5 | 0.00 | 0.00 | 0.00 | 67 | 1012.5 |
| 20260904194056 | 23 | 194 | 6.4 | 17.7 | 0.00 | 0.00 | 0.00 | 66 | 1012.6 |
| 20260904193556 | 23 | 298 | 8.0 | 17.7 | 0.00 | 0.00 | 0.00 | 67 | 1012.6 |
| 20260904193119 | 23 | 166 | 6.4 | 17.7 | 0.00 | 0.00 | 0.00 | 66 | 1012.8 |
| 20260904192556 | 24 | 162 | 6.4 | 16.1 | 0.00 | 0.00 | 0.00 | 66 | 1012.8 |
| 20260904192059 | 24 | 218 | 1.6 | 12.9 | 0.00 | 0.00 | 0.00 | 65 | 1012.7 |
| 20260904191624 | 24 | 263 | 3.2 | 12.9 | 0.00 | 0.00 | 0.00 | 64 | 1012.9 |